Location: Chuathbaluk
(61.5726°N, 159.2454°W)
Time: 14:07:28
(UTC+00:00)

XW-2F - Pass Details

Date: 17 January 2021
Orbit: 500 x 520 km, 97.5° (Epoch: 01 March)

Event Time Altitude Azimuth Distance (km) Brightness Sun altitude
Rises 18:27:57 0° 13° (NNE) 2,656 ? -6.9°
Reaches altitude 10° 18:30:16 10° 1° (N) 1,767 ? -6.6°
Maximum altitude 18:33:29 27° 303° (WNW) 1,046 ? -6.3°
Drops below altitude 10° 18:36:42 10° 246° (WSW) 1,763 ? -6.0°
Sets 18:39:01 0° 234° (SW) 2,649 ? -5.8°
